{"data":{"norad_id":52693,"intl_designator":"2022-053AP","name":"STARLINK-3946","alt_names":[],"object_type":"PAYLOAD","status":"ACTIVE","operator":null,"country":"US","launch_date":"2022-05-18","launch_site_code":"AFETR","launch_vehicle":null,"mission":null,"orbit_class":"UNKNOWN","rcs_meters":null,"size_class":null,"mass_kg":null,"dimensions":null,"purposes":["comms"],"wikipedia_slug":null,"has_3d_model":false,"image_url":null,"decayed_at":null,"tle_current":{"epoch":"2026-05-25T00:16:55.136928Z","epoch_age_seconds":81343,"freshness":"FRESH","line1":"1 52693U 22053AP  26145.01174927 -.00000638  00000+0 -22043-4 0  9999","line2":"2 52693  53.2126 161.4974 0000758  45.5243 314.5811 15.08836441222673","mean_motion":15.08836441,"eccentricity":7.58e-5,"inclination_deg":53.2126,"raan_deg":161.4974,"arg_perigee_deg":45.5243,"mean_anomaly_deg":314.5811,"bstar":-2.2043e-5,"rev_number":22267,"period_min":95.437779793125,"perigee_km":539.22989126662,"apogee_km":540.27864358276,"semimajor_km":6917.8912674247,"source":"CELESTRAK","updated_at":"2026-05-25T13:38:17.236832Z"}}}